This is the latest recevied weather packets stored in our database for station/object DG4MJS-10. If no packets are shown the sender has not sent any weather packets the latest 10 day(s).
| Time | Temp. | Humidity | Pressure | Rain* | Wind** | Luminosity | Snow |
|---|---|---|---|---|---|---|---|
| 1788058778 | 19.44° C | 70% | 1016.7 hPa | - | - | - | - |
| 1788057878 | 19.44° C | 69% | 1016.8 hPa | - | - | - | - |
| 1788056978 | 20° C | 65% | 1016.8 hPa | - | - | - | - |
| 1788056077 | 20° C | 62% | 1016.8 hPa | - | - | - | - |
| 1788055177 | 19.44° C | 64% | 1016.7 hPa | - | - | - | - |
| 1788054277 | 19.44° C | 69% | 1016.7 hPa | - | - | - | - |
| 1788053377 | 19.44° C | 69% | 1016.7 hPa | - | - | - | - |
| 1788052477 | 19.44° C | 67% | 1016.7 hPa | - | - | - | - |
| 1788051577 | 19.44° C | 66% | 1016.8 hPa | - | - | - | - |
| 1788050677 | 18.89° C | 67% | 1016.7 hPa | - | - | - | - |
| 1788049777 | 18.89° C | 66% | 1016.8 hPa | - | - | - | - |
| 1788048877 | 20° C | 60% | 1016.7 hPa | - | - | - | - |
| 1788047977 | 20° C | 59% | 1016.9 hPa | - | - | - | - |
| 1788047077 | 19.44° C | 60% | 1016.8 hPa | - | - | - | - |
| 1788046177 | 19.44° C | 62% | 1016.7 hPa | - | - | - | - |
| 1788045277 | 20° C | 59% | 1016.7 hPa | - | - | - | - |
| 1788044376 | 20° C | 59% | 1016.6 hPa | - | - | - | - |
| 1788043476 | 20° C | 59% | 1016.5 hPa | - | - | - | - |
| 1788042575 | 19.44° C | 59% | 1016.5 hPa | - | - | - | - |
| 1788041676 | 19.44° C | 60% | 1016.5 hPa | - | - | - | - |
| 1788040776 | 19.44° C | 65% | 1016.6 hPa | - | - | - | - |
| 1788039876 | 19.44° C | 65% | 1016.4 hPa | - | - | - | - |
| 1788038975 | 19.44° C | 64% | 1016.4 hPa | - | - | - | - |
| 1788038075 | 19.44° C | 63% | 1016.4 hPa | - | - | - | - |
| 1788037175 | 19.44° C | 63% | 1016.4 hPa | - | - | - | - |
* Rain since midnight (hover to see other rain measurements)
** Current wind speed in m/s (hover to see current wind gust speed)